Lahr Airport EDTL

Flugplatz Daten

Name: Lahr Airport

Ident: EDTL

Lat: 48,36930084

Long: 7,827720165

Platzhöhe: 511 ft

IataCode: LHA

City:

Metar

2022/08/10 17:50
EDTL 101750Z 07005KT 360V120 CAVOK 29/07 Q1019

Taf

Gewünschte Webcam nicht vorhanden? Dann fügen Sie eine hinzu. Sie wird dann so schnell wie möglich freigeschaltet
Url: Title: